Dewpoint
54 54 53 53 53 53 53 52 52 52 52 51 51 51 50 50 50 50 51 51 51 51 53 54 56 56 50 32 26 38 48 47 45 35 26 29 32 32 30 31 31 32 28 30 32 33 31
53 53 53 53 53 52 52 52 51 51 51 51 50 50 50 50 50 50 50 50 51 52 53 54 55 57 39 27 18 28 24 34 35 31 25 31 26 32 31 32 31 29 30 31 31 31 31
53 53 53 52 52 52 51 51 51 51 51 51 50 50 49 49 49 50 50 50 52 53 54 55 56 51 30 28 14 16 20 19 23 23 22 27 33 33 31 28 31 28 27 26 27 28 29
52 52 52 52 51 51 50 50 50 50 50 50 50 50 49 49 49 49 50 51 52 54 54 53 57 40 30 26 20 13 12 17 18 19 21 27 29 27 28 28 25 22 22 19 20 26 28
52 51 51 51 51 50 50 50 49 49 50 50 49 49 49 49 49 50 51 51 52 53 53 55 48 31 27 27 18 13 11 15 17 18 18 23 29 23 25 18 16 16 12 16 16 23 26
51 51 50 50 50 50 50 49 49 49 49 49 49 49 49 49 50 51 51 50 50 47 51 39 26 26 25 21 18 13 12 15 15 20 17 22 25 21 19 17 13 21 12 12 13 19 24
50 50 50 50 50 49 49 49 49 48 48 49 50 50 50 50 50 49 47 43 36 36 37 35 35 35 34 28 17 14 13 14 19 17 22 18 21 21 19 20 19 14 13 13 13 13 17
50 50 50 49 49 49 49 48 48 48 48 47 49 50 50 50 49 48 42 39 38 39 36 38 37 37 37 34 25 15 14 16 17 22 15 15 19 21 17 17 19 17 14 14 17 16 17
49 49 49 49 49 48 48 48 47 47 47 47 47 49 49 49 47 44 42 43 45 40 36 35 36 24 18 18 28 26 12 12 10 12 13 14 12 12 11 11 13 13 13 17 15 11 9
49 48 48 48 48 48 47 47 47 46 47 48 47 48 49 47 38 42 41 44 45 42 32 26 25 20 15 16 15 12 11 11 10 9 10 11 11 9 11 11 11 18 9 10 9 11 14
48 48 48 48 47 47 46 46 46 47 48 48 48 48 46 46 43 40 42 42 45 41 23 24 20 18 16 14 15 15 9 7 11 9 14 18 13 13 15 14 8 11 3 2 3 6 8
48 48 48 47 47 47 46 45 46 47 48 47 47 48 44 42 43 40 40 40 43 27 23 29 27 27 24 21 17 14 10 8 10 11 10 10 7 9 9 4 4 3 2 4 8 6 14
48 47 47 46 47 46 46 46 46 46 47 47 47 47 40 41 35 39 39 40 21 19 25 26 28 27 26 26 24 20 18 18 21 22 22 19 10 4 5 5 5 3 10 17 17 17 12
47 47 47 47 46 46 46 45 45 45 47 46 46 43 39 40 37 39 40 29 13 21 26 29 27 26 24 26 25 25 22 18 20 13 17 17 16 8 6 8 11 5 10 17 14 13 15
47 46 46 46 46 45 45 46 46 46 46 46 45 36 33 34 37 40 34 13 12 26 29 28 24 17 24 26 24 23 22 18 26 29 18 19 18 6 5 1 18 13 11 21 23 18 16
47 47 46 46 47 45 46 47 46 45 46 46 37 33 29 32 38 38 27 17 26 32 29 29 19 24 22 24 21 21 22 21 28 31 29 26 18 18 5 5 9 21 18 16 18 11 6
46 45 45 47 46 46 46 47 46 45 44 43 36 26 24 33 36 31 21 25 30 31 31 26 26 25 24 24 23 23 25 30 34 30 29 27 25 18 20 16 16 13 16 21 23 23 11
45 47 46 46 46 47 46 47 46 46 44 38 34 21 31 34 23 28 19 20 25 26 29 24 29 27 27 27 24 22 21 28 31 28 21 26 24 16 14 20 22 17 16 20 19 17 18
46 46 46 46 47 48 47 47 46 46 43 41 29 29 32 30 13 15 17 18 21 24 25 22 24 29 28 25 20 23 24 34 29 22 22 24 18 9 4 14 20 22 24 23 25 22 15
46 46 46 46 48 48 48 48 47 46 43 40 33 21 24 27 27 21 21 18 17 20 23 27 26 25 23 19 23 23 22 23 26 22 24 28 23 15 8 8 11 15 14 18 17 14 10
46 46 46 46 46 47 48 48 47 46 44 39 33 23 26 19 19 22 23 20 20 16 23 23 20 19 19 17 16 13 15 18 20 21 23 25 15 14 15 15 15 16 15 15 14 14 14
46 46 46 46 46 46 47 47 46 46 44 38 32 28 30 25 24 24 21 18 18 17 21 17 22 19 22 20 19 18 19 19 19 22 23 25 16 17 12 11 10 12 12 13 13 14 15
46 46 45 45 45 45 46 46 45 46 44 36 37 36 33 28 26 23 18 17 17 18 24 22 21 24 22 20 21 22 23 21 22 22 21 23 18 15 7 7 11 10 13 13 16 17 17
45 45 44 44 44 43 44 43 43 44 45 40 37 36 31 24 25 22 21 20 20 20 23 26 27 26 24 27 27 25 25 24 23 21 24 22 21 17 10 10 3 5 12 14 12 14 17
44 43 43 42 43 43 43 43 42 42 43 43 41 36 32 26 26 23 23 23 24 25 25 24 25 28 28 26 22 17 10 12 16 20 21 24 22 15 10 7 6 8 11 12 10 6 12
41 41 42 42 42 42 42 40 41 42 43 44 41 40 34 29 27 23 24 25 23 22 22 23 26 29 29 26 18 11 4 8 6 13 21 22 23 18 12 8 0 1 7 5 11 6 5
41 41 41 41 42 42 42 42 42 42 42 42 41 42 36 30 31 30 26 24 26 24 23 23 24 26 27 22 15 9 6 13 8 9 13 15 17 13 10 12 8 12 8 9 9 10 4
41 41 42 42 42 42 42 42 42 42 42 42 40 41 36 32 33 31 28 27 28 28 23 25 24 23 22 18 16 12 14 14 14 13 11 11 13 10 10 10 5 9 6 11 21 22 17
42 42 42 42 41 42 42 42 42 42 41 42 38 41 41 34 33 33 32 31 29 29 29 29 25 23 25 20 20 20 16 15 13 8 12 12 14 14 14 10 12 15 22 25 26 25 25
Lifted_Index
12 12 12 12 13 13 13 13 13 13 13 14 14 15 15 15 15 15 15 15 14 14 13 12 10 10 11 12 12 13 13 13 12 12 11 10 9 9 8 8 8 8 7 8 8 8 8
12 12 12 13 13 13 13 13 14 14 14 14 15 15 15 15 15 15 15 15 15 14 13 11 10 11 12 12 13 13 14 14 13 12 11 10 10 9 8 8 8 8 7 8 8 8 8
13 13 13 13 13 14 14 14 14 14 15 15 15 15 15 15 15 15 15 15 14 13 12 11 10 11 12 13 14 14 14 14 14 13 12 12 11 10 9 8 8 7 7 7 7 7 7
13 13 14 14 14 14 14 15 15 15 15 15 15 15 15 15 15 15 15 14 13 12 11 11 11 12 13 14 14 14 14 14 14 14 13 13 12 11 9 9 8 7 6 6 7 7 8
14 14 14 14 14 14 14 15 15 15 15 15 15 16 16 16 15 15 15 14 13 12 12 12 12 12 12 13 14 14 14 14 14 14 13 13 12 10 9 7 6 6 5 5 6 7 8
14 14 14 14 14 15 15 16 16 16 16 16 16 16 16 16 16 15 15 14 14 13 13 14 14 13 13 13 13 14 14 13 13 13 12 11 10 8 7 6 6 5 5 5 6 7 8
14 14 15 15 15 15 16 17 17 17 17 17 16 16 16 17 16 16 16 15 15 14 14 14 14 13 13 13 12 13 13 12 12 11 10 9 8 7 7 7 6 6 5 5 6 6 7
14 15 15 15 15 16 16 17 18 18 18 18 17 17 17 17 17 17 16 16 16 15 14 14 14 13 13 13 11 11 12 11 10 9 8 8 7 7 7 7 6 6 5 5 6 6 6
15 15 15 15 15 16 16 17 18 18 18 18 18 18 17 17 17 17 16 16 16 14 13 13 13 12 12 12 11 11 11 10 8 7 7 6 6 6 6 6 5 5 5 6 6 6 6
15 15 15 15 16 16 17 17 17 18 18 18 18 18 17 17 17 17 16 15 14 12 10 10 11 11 11 10 10 10 11 9 8 7 6 6 6 6 6 5 6 6 6 7 7 6 5
15 15 15 16 16 17 17 18 18 17 17 17 18 18 18 17 16 16 15 14 13 10 7 7 9 9 9 8 8 9 10 9 8 7 7 7 6 6 6 6 7 7 7 7 7 5 4
15 15 15 16 16 17 17 18 18 17 17 17 17 17 17 16 15 14 13 12 10 7 5 6 7 7 7 7 8 8 8 8 7 7 6 7 7 7 7 7 7 7 6 6 5 4 3
15 15 16 16 17 17 17 18 17 17 17 17 17 17 16 16 15 14 12 10 8 6 5 6 6 6 6 7 7 7 7 7 6 5 5 5 6 7 7 7 7 7 5 4 2 2 1
15 15 16 16 17 17 17 17 17 17 16 16 16 16 15 15 14 13 10 8 6 5 6 6 6 5 5 6 6 6 6 6 6 6 4 3 4 6 7 7 7 6 5 3 2 1 2
15 15 16 16 16 16 16 16 16 16 16 15 15 14 14 14 13 11 8 6 5 6 7 6 5 5 5 5 6 6 6 6 7 6 5 3 4 6 7 7 7 7 6 5 3 2 2
15 16 16 16 16 16 16 15 15 15 15 15 13 12 13 13 12 10 7 5 6 7 8 7 5 5 5 5 6 6 6 7 7 7 6 6 6 7 8 8 7 7 7 6 4 3 1
15 15 15 15 15 15 15 14 14 15 15 14 12 11 12 13 11 8 6 6 7 8 9 8 6 6 6 6 7 7 7 7 7 7 7 7 7 8 8 8 7 7 6 6 4 3 2
15 15 15 15 14 14 14 14 14 14 14 14 12 11 12 12 10 8 7 7 8 9 9 9 8 8 7 7 7 7 7 7 7 7 8 8 8 8 8 8 7 6 6 5 4 3 3
14 14 14 14 13 13 13 12 12 13 14 13 12 11 13 12 10 9 8 8 9 9 9 9 9 8 8 8 7 7 7 7 7 8 8 9 8 7 7 7 7 6 6 5 4 3 2
14 14 13 13 13 12 12 11 11 12 13 13 12 12 13 13 11 10 9 9 8 9 9 9 8 8 8 7 7 7 8 8 8 8 9 9 9 7 6 6 7 6 6 5 4 3 2
13 13 13 13 12 11 11 11 11 11 12 13 12 12 12 12 11 10 9 9 8 8 9 9 8 8 7 7 7 7 8 8 9 9 9 9 8 7 7 6 6 6 5 4 3 3 2
13 13 12 12 12 11 11 11 11 11 12 12 11 11 11 11 10 9 9 8 8 8 8 8 8 8 7 6 7 7 8 8 8 8 8 7 7 6 6 6 5 5 4 3 3 2 2
13 12 12 12 12 12 12 12 11 11 11 10 10 9 9 9 9 8 8 8 8 8 8 8 8 7 7 6 7 7 8 8 7 7 7 6 6 5 5 4 4 3 3 2 2 1 1
12 12 13 13 13 13 12 12 11 10 9 9 9 8 8 8 8 8 7 7 7 7 7 7 7 7 6 6 6 7 7 7 6 6 5 5 4 4 4 3 3 2 2 2 2 1 1
13 13 13 13 13 13 13 12 11 10 9 8 8 7 7 7 7 7 6 6 6 6 6 6 6 6 6 5 5 5 5 5 5 5 4 4 4 3 3 3 2 2 2 2 2 2 1
14 14 13 13 13 13 12 12 10 9 8 8 8 7 6 6 6 5 5 5 5 5 5 5 4 4 4 4 4 4 4 4 4 4 3 3 3 3 3 2 2 2 3 3 2 2 2
14 14 13 13 12 12 11 10 9 8 8 7 7 7 6 5 4 4 4 4 4 4 4 3 3 3 4 3 4 3 3 3 3 3 3 3 3 3 3 2 2 3 3 3 3 3 3
13 13 13 12 11 10 9 9 8 7 7 7 7 6 5 4 3 3 3 3 3 3 3 3 3 3 3 3 3 3 3 3 3 2 2 3 2 2 2 3 3 3 4 3 3 3 4
13 13 12 12 11 9 8 8 7 7 6 6 6 6 5 3 3 3 3 3 3 2 2 2 2 2 3 3 3 3 3 3 2 2 3 3 2 2 3 3 3 4 4 4 4 4 4